Temperature
21 21 21 21 18 16 18 18 18 18 18 18 18 18 17 17 17 17 17 17 17 17 17 17 17 17 17 17 17 17 17 17 17 17 17 17 17 17 17 17 18 17 17 17 17 17 17 17 18
21 21 21 20 16 17 18 18 18 18 19 19 18 18 17 16 17 17 17 17 17 17 17 17 17 17 17 17 17 17 17 17 17 17 17 17 17 17 17 18 18 17 17 17 17 17 17 17 17
21 21 21 16 17 17 18 18 18 19 19 19 18 17 17 16 17 17 17 17 17 17 17 17 17 17 17 17 17 17 17 17 17 17 17 17 17 17 17 17 17 17 17 17 17 17 17 17 17
21 21 20 17 18 18 18 18 18 19 19 18 18 17 17 17 17 17 17 17 17 17 17 17 17 17 16 16 17 17 17 17 17 17 17 17 17 17 17 17 17 17 17 17 17 17 17 17 17
22 21 17 17 18 18 18 19 19 18 18 18 17 16 16 17 17 17 17 17 17 17 17 17 17 16 16 16 16 17 17 17 17 17 17 17 17 17 17 17 17 17 17 17 17 17 17 17 17
22 18 16 17 18 19 19 19 19 18 18 18 17 16 16 17 17 17 17 17 17 17 17 17 17 16 16 16 16 16 16 16 16 16 16 16 17 17 17 17 17 16 16 16 16 16 17 17 17
20 16 17 17 18 18 19 19 19 18 18 18 18 16 16 17 17 17 17 17 17 17 17 17 16 16 16 16 16 16 16 16 16 16 16 16 16 16 16 16 16 16 16 16 16 16 16 16 16
21 16 17 17 18 19 19 19 19 19 18 18 18 17 16 17 17 17 17 17 17 17 17 16 16 16 16 16 16 16 16 16 16 16 16 16 16 16 16 16 16 16 16 16 16 16 16 16 16
21 17 17 18 18 19 19 19 19 19 18 18 18 18 18 17 17 17 17 17 16 16 16 16 16 16 16 16 16 16 16 16 16 16 16 16 16 16 16 16 16 16 16 16 16 16 16 16 16
20 17 18 18 18 18 19 19 19 19 18 18 18 18 18 17 17 17 17 17 17 16 16 16 16 16 16 16 16 16 16 16 16 16 16 16 16 16 16 16 16 16 16 16 16 16 16 16 16
19 18 19 19 20 20 19 19 19 18 17 18 18 18 17 17 17 17 17 17 17 16 16 16 16 16 16 16 16 16 16 15 15 15 15 15 15 15 16 16 16 16 16 16 16 16 16 16 16
19 19 20 20 20 20 19 19 19 19 19 19 19 19 18 17 17 17 17 17 17 17 16 16 16 16 16 16 16 15 15 15 15 15 15 15 15 15 15 15 15 15 15 15 15 15 15 15 15
19 20 20 20 20 20 20 19 19 19 19 19 19 18 18 18 17 17 17 17 17 17 16 16 16 16 16 16 15 15 15 15 15 15 15 15 15 15 15 15 15 15 15 15 15 15 15 15 15
19 19 19 20 20 20 19 18 18 18 19 19 18 18 18 18 18 17 17 17 17 17 16 16 16 16 16 16 15 15 15 15 15 15 15 15 15 15 15 15 15 15 15 15 15 15 15 15 15
20 19 19 19 19 19 19 18 17 19 18 18 18 18 18 18 17 17 17 17 17 17 16 16 16 16 16 16 15 15 15 15 15 15 14 14 14 14 14 14 14 15 15 15 15 15 15 15 15
19 18 18 19 19 19 19 18 17 18 18 17 17 17 17 17 17 17 17 17 17 17 16 16 16 16 15 15 15 15 15 15 15 14 14 14 14 14 14 14 14 14 14 14 14 14 15 15 15
18 17 18 18 18 18 18 17 17 18 17 17 17 17 17 17 17 17 17 17 17 17 16 16 16 16 15 15 15 15 15 15 14 14 14 14 14 14 14 14 14 14 14 14 14 14 14 14 14
18 18 18 18 18 18 17 16 16 17 17 16 17 17 17 17 17 17 17 17 17 17 16 16 16 16 15 15 15 15 15 14 14 14 14 14 14 14 14 14 14 14 14 14 14 14 14 14 14
18 18 18 18 18 18 17 16 16 16 16 16 16 16 17 17 18 17 17 17 17 16 16 16 16 16 15 15 15 15 15 14 14 14 14 14 14 13 13 13 14 14 14 14 13 14 14 14 14
18 18 18 18 18 18 17 16 16 16 16 16 16 16 17 17 17 17 17 17 17 17 16 16 16 16 15 15 15 15 15 14 14 14 14 13 13 13 13 13 13 13 13 13 13 13 13 13 13
18 18 18 18 18 17 17 17 16 16 16 16 16 17 17 17 17 17 17 17 17 17 16 16 16 16 15 15 15 15 14 14 14 14 14 13 13 13 13 13 13 13 13 13 13 13 13 13 13
18 18 18 18 17 16 17 16 16 16 15 15 16 16 17 17 17 17 17 17 17 17 16 16 16 16 15 15 15 15 14 14 14 14 13 13 13 13 13 12 12 12 12 12 13 13 12 13 13
18 18 18 17 16 16 16 16 15 15 15 15 15 16 17 17 17 17 17 17 17 17 16 16 16 15 15 15 14 14 14 14 14 13 13 13 13 13 12 12 12 12 12 12 12 12 12 12 12
18 17 16 14 14 15 16 15 15 14 15 16 15 16 17 17 17 17 17 17 17 16 16 16 15 15 15 15 14 14 14 14 13 13 13 13 12 12 12 12 12 12 12 12 12 12 12 12 12
17 16 15 16 14 15 15 15 15 16 15 16 16 16 17 17 17 17 17 17 17 16 16 16 15 15 15 14 14 14 14 14 13 13 13 12 12 12 12 12 12 12 12 11 11 11 11 11 11
17 16 15 16 15 14 15 15 15 16 16 16 17 17 17 17 17 17 17 17 17 16 16 16 15 15 15 14 14 14 14 13 13 13 12 12 12 12 12 12 11 11 11 11 11 11 11 11 11
16 15 15 14 15 14 14 14 15 16 16 15 15 16 16 17 17 17 17 17 17 16 16 15 15 15 14 14 14 14 13 13 13 13 12 12 12 12 11 11 11 11 11 11 11 11 11 11 11
17 14 13 14 15 15 15 15 15 16 16 15 14 15 16 17 17 17 17 17 16 16 16 15 15 14 14 14 14 14 13 13 13 13 12 12 12 11 11 11 11 11 11 10 10 10 10 10 10
16 15 14 13 13 14 14 15 16 15 15 15 14 15 16 17 17 17 17 16 16 16 15 15 15 14 14 14 14 13 13 13 13 12 12 12 11 11 11 11 11 10 10 10 10 10 10 10 10
16 16 14 15 14 12 13 14 16 15 14 15 15 16 16 16 16 17 16 16 16 16 15 15 15 14 14 14 13 13 13 13 13 12 12 11 11 11 11 10 10 10 10 10 10 10 10 10 10
Wind_Speed
2 5 4 4 6 6 3 2 1 2 3 3 4 6 7 4 2 3 1 1 1 2 3 4 6 7 8 9 9 10 10 10 10 10 11 11 11 11 11 10 10 10 10 10 11 11 11 11 10
2 3 4 5 5 4 2 2 2 2 4 4 5 5 6 4 2 3 1 1 3 3 4 5 7 8 8 9 9 10 10 10 9 10 10 10 10 10 10 10 10 10 9 9 9 10 10 10 10
2 4 5 5 4 4 3 1 3 4 4 3 4 5 4 2 1 2 1 3 4 4 5 5 8 8 8 9 9 9 9 9 9 9 9 9 9 9 9 9 9 9 9 9 9 10 10 10 10
4 5 5 6 4 1 3 3 3 5 4 5 4 5 3 2 2 2 4 5 5 4 5 5 7 8 8 8 9 9 9 9 9 9 8 9 9 9 8 8 9 9 9 9 9 10 10 9 10
4 5 6 4 2 2 1 2 3 4 3 3 4 5 3 4 3 6 6 5 4 3 4 5 7 7 7 8 8 8 8 8 8 8 8 8 8 8 8 8 8 9 9 9 9 9 9 9 10
5 5 5 3 1 2 1 1 3 4 4 3 4 4 2 2 4 4 5 5 4 3 4 5 6 7 7 7 8 8 8 8 8 8 8 8 8 8 8 8 8 8 8 8 8 9 9 9 9
5 5 4 4 2 1 2 2 3 5 4 3 5 5 1 0 2 4 5 4 4 4 4 4 5 6 6 7 7 7 8 8 9 9 8 8 8 8 8 8 8 8 8 8 8 8 8 9 9
5 5 4 3 4 2 2 3 2 4 3 3 4 6 4 4 4 5 5 5 4 3 3 3 4 5 5 5 6 7 7 8 8 9 8 9 9 8 8 8 8 8 8 8 8 9 9 10 10
4 5 3 5 6 4 3 3 2 2 5 3 2 3 4 8 7 6 4 3 2 2 2 2 3 4 5 5 6 6 7 7 8 8 9 9 9 9 8 8 8 8 8 8 9 9 10 11 11
5 4 5 5 6 5 4 4 4 4 3 2 3 4 6 9 8 6 4 3 2 1 0 1 1 2 3 4 5 6 6 7 8 8 8 8 8 8 8 8 8 8 8 8 9 10 10 10 9
3 5 3 2 5 5 5 4 3 8 3 5 7 8 8 8 7 6 4 3 3 2 1 1 1 2 2 3 4 4 5 6 7 7 7 7 7 7 8 7 7 8 8 8 8 9 8 8 8
3 1 2 3 4 5 5 5 4 5 5 5 8 11 9 9 8 6 6 4 3 3 2 1 1 1 1 2 3 3 4 4 4 5 6 6 5 5 5 5 6 6 6 6 6 6 7 8 8
2 1 1 3 5 5 5 4 4 2 2 6 8 9 9 9 7 5 4 4 3 3 2 2 2 2 1 2 2 3 3 3 3 4 5 6 4 3 3 4 5 5 5 5 4 4 5 6 6
2 3 3 3 4 2 4 2 3 3 5 7 9 9 8 8 7 5 4 4 4 3 3 2 2 2 3 2 2 2 2 3 4 4 4 5 4 3 3 3 4 4 5 4 4 4 4 4 5
3 4 4 2 2 2 5 0 4 5 8 8 8 7 7 6 6 6 6 5 4 3 3 3 3 3 3 3 2 3 3 4 3 3 4 4 4 4 3 3 3 3 4 5 5 5 5 4 4
4 4 1 3 2 2 5 5 5 6 9 8 7 6 6 5 5 5 5 4 4 4 4 3 3 4 3 3 2 3 3 4 3 3 4 4 3 4 4 3 2 3 5 4 3 3 4 4 4
3 1 3 3 3 3 4 5 4 6 9 8 7 7 7 5 4 4 4 4 4 4 5 4 4 4 3 3 3 4 4 4 4 4 4 4 4 4 4 3 2 3 3 3 3 3 3 3 4
3 3 3 5 3 4 4 6 4 5 8 8 7 7 7 7 7 5 4 4 4 4 4 4 4 4 4 3 3 3 4 3 4 4 4 4 4 4 4 3 3 3 3 3 2 3 3 3 3
4 4 4 5 3 5 6 7 7 6 7 8 8 8 8 9 6 4 4 4 4 4 4 4 5 4 4 2 2 2 1 1 2 3 4 4 4 4 4 3 2 2 2 2 2 3 3 2 2
4 3 4 3 2 4 5 7 6 7 9 10 11 10 10 7 4 4 4 4 4 5 5 5 4 4 4 3 2 2 2 1 1 2 4 4 4 3 3 3 2 2 2 3 2 2 2 1 2
4 5 5 3 1 1 0 5 5 5 5 6 8 8 9 10 9 7 6 5 5 5 6 6 5 4 4 3 3 3 3 3 2 2 2 3 3 3 3 3 3 2 2 2 1 2 2 1 1
4 5 5 3 2 3 2 4 7 5 5 7 9 9 9 9 8 8 7 6 6 6 5 5 5 4 4 4 4 5 3 2 1 1 0 2 3 3 3 3 3 2 1 1 1 2 1 2 1
5 1 2 2 3 1 1 3 7 2 6 9 10 11 10 10 10 9 9 8 7 6 5 5 5 4 4 4 5 4 3 2 1 1 1 2 2 3 3 3 3 2 1 1 1 2 2 1 2
4 5 5 5 4 2 4 4 7 4 8 7 7 10 10 10 9 8 6 6 5 5 5 5 5 4 4 4 4 5 5 4 3 2 1 1 1 2 2 2 2 1 1 1 1 1 1 1 1
5 5 3 4 3 5 3 4 7 6 6 7 8 9 10 9 9 8 7 7 6 6 6 6 6 4 4 4 4 4 5 5 5 3 2 1 0 0 1 1 1 1 1 1 2 2 1 1 1
4 7 6 4 4 5 2 5 7 5 5 4 5 6 7 8 8 9 9 8 8 8 7 7 7 5 5 5 4 4 4 3 3 3 3 3 2 2 1 1 1 1 2 2 2 2 1 1 1
5 3 5 5 2 2 5 6 8 3 3 1 2 4 7 8 8 8 7 7 7 7 7 8 7 6 6 5 4 4 4 4 3 3 2 2 1 1 1 1 1 2 2 2 2 2 1 1 1
5 8 5 5 3 3 5 5 4 6 5 3 3 5 6 6 6 6 6 6 6 6 6 6 6 6 5 5 5 4 4 4 3 3 3 2 1 1 1 1 1 2 2 2 2 2 1 2 1
4 4 4 4 5 4 3 6 5 6 6 5 6 6 6 7 7 7 6 5 5 5 5 5 5 5 5 5 4 4 3 3 3 3 3 2 2 2 2 2 1 2 2 2 2 1 1 1 1
5 6 7 5 4 4 3 6 5 4 5 5 5 5 5 6 5 5 5 5 5 5 5 5 5 5 5 5 5 5 4 4 3 3 2 2 2 2 2 2 2 1 1 1 2 1 1 1 0
Wind_Direction
47 84 81 58 54 53 52 353 53 59 54 43 61 82 96 88 100 128 269 82 84 73 54 58 61 69 75 75 80 80 79 79 78 79 78 76 75 76 77 77 79 79 78 76 74 78 83 83 83
96 93 60 59 78 75 356 344 74 86 133 128 71 70 72 65 61 98 44 103 98 85 68 69 71 71 74 77 80 81 81 81 81 79 77 74 72 74 75 74 75 77 77 78 77 78 79 78 78
96 64 77 70 89 139 162 175 129 92 100 99 74 61 79 85 101 148 163 111 91 75 69 68 74 72 73 75 76 78 80 82 82 77 76 74 71 70 72 72 72 76 78 78 77 78 76 74 74
83 50 56 70 77 179 171 167 149 120 75 54 90 71 62 40 144 145 115 106 94 71 68 70 75 72 73 73 75 75 76 78 78 76 75 73 71 69 69 70 70 73 78 77 75 75 75 75 73
62 75 64 59 42 20 96 151 130 104 87 60 89 95 52 2 79 103 108 108 108 84 64 70 74 73 73 73 74 75 73 72 71 70 70 69 70 67 66 66 69 71 76 76 74 72 74 74 73
58 69 86 102 62 36 60 122 110 91 92 90 96 103 69 22 93 111 108 104 104 98 69 63 70 72 75 74 72 73 72 68 67 66 64 62 63 63 62 63 69 71 72 73 72 71 72 74 74
99 90 116 135 125 63 161 120 113 116 112 135 130 108 101 60 128 120 103 95 87 82 69 48 46 55 64 67 70 73 71 67 65 63 59 57 59 62 61 61 67 69 71 70 69 70 74 74 73
116 100 97 132 147 189 154 120 112 117 122 117 118 133 175 199 140 107 91 80 79 72 57 43 38 40 41 48 64 68 68 64 60 57 53 51 51 51 55 57 62 63 65 67 68 70 73 71 71
90 82 150 182 171 181 148 123 96 85 102 84 86 153 174 138 125 106 86 66 70 74 44 42 38 35 33 42 54 60 59 56 55 51 50 50 45 42 44 52 55 58 59 61 65 71 69 66 65
86 133 201 192 174 164 153 143 144 103 96 94 77 76 112 126 134 137 144 151 149 153 37 63 51 41 38 47 51 51 53 54 56 54 51 51 47 42 40 43 49 51 53 55 60 64 63 61 59
112 162 184 167 162 148 142 139 139 132 169 195 170 153 141 139 146 155 164 171 186 193 192 154 119 70 60 53 57 53 55 54 51 52 51 55 51 44 41 40 38 39 46 51 55 56 58 60 59
107 140 146 157 151 142 148 139 135 169 207 188 165 153 151 155 165 174 176 180 175 162 190 187 143 99 80 76 68 62 61 59 51 48 55 64 57 45 40 41 36 40 46 52 55 61 60 60 57
95 125 84 130 132 136 128 137 153 204 153 128 131 140 156 164 173 178 174 172 166 167 175 177 148 122 84 77 72 68 64 69 66 63 63 74 71 50 46 41 42 42 50 59 57 60 63 60 55
139 88 70 89 108 135 136 133 131 206 132 129 142 158 168 173 173 167 171 172 176 181 174 152 130 119 96 82 74 77 76 75 71 65 63 75 85 74 58 48 46 43 47 63 74 75 71 62 59
84 75 39 35 100 132 116 45 214 185 141 148 164 173 175 182 174 182 188 184 184 181 161 151 139 107 101 95 84 86 83 78 72 66 67 77 84 82 74 60 48 40 52 67 78 76 74 65 58
60 71 33 280 151 151 143 235 243 165 152 166 178 183 185 191 192 198 191 183 176 159 149 155 142 117 112 106 92 85 81 81 76 77 76 84 94 97 87 71 51 52 63 68 74 72 72 63 59
42 121 242 272 203 155 170 234 246 167 165 180 189 191 193 196 204 207 197 185 172 166 154 142 127 125 125 109 90 82 79 73 72 74 72 77 85 94 93 80 68 70 70 64 76 71 85 84 68
210 214 239 244 226 166 198 240 239 185 181 191 197 199 199 202 214 205 193 184 172 163 152 141 133 125 120 101 82 70 63 54 59 63 63 75 83 91 89 79 68 73 73 60 67 81 71 89 87
176 194 236 250 214 180 218 243 242 199 195 201 203 204 207 215 215 189 183 175 162 154 150 151 144 141 130 112 108 98 78 44 36 44 48 62 80 92 93 83 73 69 76 79 86 92 85 69 67
182 212 243 278 219 191 227 256 249 206 206 205 202 204 207 208 196 190 185 177 174 172 167 160 159 157 157 145 133 122 116 93 69 41 44 46 66 87 98 95 92 80 78 69 77 87 87 53 46
208 203 218 228 6 30 329 297 263 233 212 206 205 206 204 202 197 194 190 190 180 180 177 175 174 167 159 134 110 90 67 50 38 27 14 16 47 73 91 98 95 89 100 121 118 99 103 117 35
237 228 202 190 151 261 191 263 270 236 225 216 213 206 207 207 198 194 192 191 191 191 176 168 169 165 154 140 139 140 143 151 197 200 336 15 46 63 80 95 96 104 113 130 145 107 108 128 134
211 164 149 168 165 287 268 220 280 251 236 234 219 211 210 205 197 197 198 197 192 180 167 166 160 158 151 149 152 146 138 146 124 91 71 41 31 47 61 83 88 102 122 130 102 96 86 107 140
136 75 61 53 81 270 231 199 276 238 226 234 217 208 205 199 195 198 196 186 177 165 159 158 157 162 158 153 151 155 152 145 130 122 116 51 25 21 35 59 68 90 113 124 121 108 105 92 113
95 91 30 355 3 255 253 210 253 258 242 228 220 208 198 189 187 188 184 185 180 171 170 168 163 167 164 158 161 168 164 159 161 168 171 156 98 313 298 56 69 70 91 111 105 93 89 99 119
162 143 159 206 234 278 288 238 256 268 278 249 212 191 180 183 189 191 190 187 184 181 176 173 174 176 172 171 176 167 160 163 170 173 175 185 197 218 212 164 117 97 102 102 100 94 78 69 93
136 160 163 140 174 270 279 287 301 296 325 324 169 167 183 188 190 191 187 184 182 181 183 181 178 180 182 183 172 161 165 171 175 177 177 177 188 184 142 128 108 95 101 101 104 101 82 66 64
136 143 108 128 166 263 291 283 267 288 277 256 216 200 200 191 189 186 182 182 180 180 179 174 176 182 182 178 178 177 179 179 168 157 167 171 177 143 136 120 111 100 97 103 98 103 85 75 42
115 115 121 130 154 165 263 274 241 245 248 233 229 212 198 190 187 185 182 178 170 166 169 174 175 173 176 179 178 172 177 172 160 164 177 177 171 157 159 162 136 113 108 107 103 99 94 89 46
171 173 154 162 210 181 193 266 283 257 252 226 226 213 193 182 176 174 170 161 161 167 174 176 176 180 186 182 176 178 170 162 164 177 183 170 171 171 166 151 138 136 129 125 127 139 126 147 163
Height
1492 1492 1493 1495 1499 1512 1517 1514 1510 1510 1510 1510 1510 1510 1512 1516 1519 1524 1521 1518 1518 1518 1517 1517 1517 1516 1516 1516 1516 1516 1516 1516 1516 1516 1516 1516 1516 1516 1516 1516 1516 1516 1517 1517 1517 1515 1516 1518 1518
1493 1493 1495 1496 1509 1524 1521 1513 1512 1510 1511 1511 1511 1513 1514 1516 1518 1519 1519 1519 1519 1519 1518 1518 1518 1517 1517 1517 1517 1517 1518 1518 1518 1518 1518 1518 1518 1518 1518 1518 1518 1518 1518 1518 1518 1518 1518 1519 1519
1493 1494 1496 1501 1514 1522 1518 1512 1511 1510 1511 1511 1513 1514 1516 1518 1519 1519 1520 1520 1520 1520 1520 1519 1519 1519 1519 1519 1519 1519 1519 1519 1519 1519 1519 1519 1519 1519 1519 1519 1519 1519 1519 1519 1519 1519 1520 1520 1520
1494 1496 1498 1508 1516 1514 1512 1511 1510 1511 1512 1513 1514 1516 1518 1520 1520 1521 1520 1521 1521 1521 1521 1521 1520 1520 1520 1520 1520 1520 1520 1521 1521 1521 1521 1521 1521 1521 1521 1520 1520 1521 1521 1521 1521 1521 1521 1521 1521
1495 1497 1507 1516 1515 1512 1510 1510 1510 1511 1513 1514 1515 1517 1520 1521 1521 1521 1522 1522 1522 1522 1522 1522 1522 1522 1522 1522 1521 1521 1522 1522 1522 1522 1522 1522 1522 1522 1522 1522 1522 1522 1522 1522 1522 1522 1522 1522 1522
1496 1499 1516 1522 1517 1512 1511 1511 1511 1512 1514 1515 1516 1518 1521 1522 1522 1523 1523 1523 1523 1523 1523 1523 1523 1523 1523 1523 1523 1523 1523 1523 1523 1523 1523 1523 1523 1523 1523 1523 1523 1523 1523 1523 1524 1524 1524 1524 1524
1498 1505 1515 1518 1518 1515 1512 1512 1512 1513 1515 1516 1517 1519 1521 1522 1523 1524 1524 1524 1524 1525 1525 1525 1524 1524 1524 1524 1524 1524 1524 1524 1524 1524 1524 1524 1524 1524 1524 1524 1524 1524 1524 1525 1525 1525 1525 1525 1525
1497 1505 1514 1517 1517 1515 1512 1512 1513 1514 1516 1517 1518 1519 1521 1522 1523 1524 1525 1525 1525 1526 1526 1526 1526 1526 1526 1526 1526 1526 1526 1526 1526 1526 1525 1525 1526 1526 1526 1525 1525 1526 1526 1526 1526 1526 1526 1526 1526
1498 1509 1517 1515 1515 1513 1511 1513 1514 1515 1516 1517 1518 1519 1520 1522 1523 1524 1525 1526 1526 1527 1527 1527 1527 1527 1527 1527 1527 1527 1527 1527 1527 1527 1527 1527 1527 1527 1527 1527 1527 1527 1527 1527 1527 1527 1527 1527 1527
1499 1511 1510 1507 1507 1509 1510 1512 1514 1516 1517 1518 1518 1519 1521 1522 1523 1524 1525 1525 1526 1527 1527 1528 1528 1528 1528 1528 1528 1528 1528 1528 1528 1528 1528 1528 1528 1528 1528 1528 1528 1528 1528 1528 1528 1528 1528 1528 1528
1500 1505 1504 1504 1505 1507 1509 1512 1513 1515 1517 1516 1517 1519 1520 1522 1523 1524 1526 1526 1527 1528 1528 1529 1529 1529 1529 1530 1530 1530 1530 1529 1529 1529 1529 1529 1529 1529 1529 1528 1528 1528 1528 1529 1529 1529 1529 1530 1530
1501 1502 1503 1504 1505 1507 1509 1511 1513 1514 1515 1515 1516 1518 1520 1522 1523 1525 1526 1527 1528 1528 1529 1530 1530 1530 1530 1530 1530 1531 1530 1530 1530 1530 1530 1530 1530 1530 1530 1529 1529 1529 1529 1529 1530 1530 1530 1531 1531
1502 1503 1503 1504 1505 1507 1509 1511 1512 1513 1514 1515 1517 1518 1520 1522 1523 1525 1526 1527 1528 1529 1529 1530 1530 1531 1531 1531 1531 1531 1531 1531 1531 1531 1531 1531 1531 1531 1530 1530 1530 1530 1530 1530 1530 1531 1531 1531 1532
1502 1503 1504 1505 1506 1508 1509 1511 1512 1513 1514 1515 1517 1518 1520 1521 1523 1524 1526 1527 1528 1529 1529 1530 1531 1531 1531 1531 1531 1532 1532 1532 1532 1532 1532 1532 1531 1531 1531 1531 1531 1531 1530 1530 1531 1531 1531 1532 1532
1503 1505 1507 1507 1507 1508 1510 1514 1512 1512 1513 1515 1516 1518 1520 1521 1523 1524 1525 1526 1528 1529 1530 1530 1531 1531 1531 1532 1532 1532 1532 1532 1532 1532 1532 1532 1532 1531 1531 1531 1531 1531 1531 1531 1531 1531 1532 1532 1532
1505 1510 1514 1509 1507 1508 1513 1518 1510 1511 1512 1514 1515 1517 1519 1521 1522 1524 1525 1527 1528 1529 1529 1530 1531 1531 1532 1532 1532 1532 1532 1532 1532 1532 1532 1532 1532 1532 1531 1531 1531 1531 1531 1531 1531 1531 1532 1532 1532
1512 1518 1516 1512 1507 1508 1512 1514 1509 1510 1511 1512 1514 1516 1517 1519 1521 1523 1524 1526 1527 1528 1529 1530 1531 1531 1531 1532 1532 1532 1532 1532 1532 1532 1532 1532 1532 1532 1531 1531 1531 1531 1531 1531 1531 1531 1532 1532 1532
1517 1517 1516 1514 1508 1509 1512 1512 1508 1509 1510 1511 1513 1514 1516 1517 1519 1521 1523 1525 1526 1528 1529 1530 1530 1531 1531 1531 1531 1532 1532 1532 1532 1532 1532 1532 1531 1531 1531 1531 1531 1531 1531 1531 1531 1531 1532 1532 1532
1508 1512 1514 1511 1506 1509 1511 1510 1507 1508 1509 1510 1511 1512 1513 1515 1518 1520 1522 1523 1525 1526 1527 1529 1530 1530 1530 1531 1531 1531 1531 1531 1531 1531 1531 1531 1531 1531 1531 1531 1531 1531 1530 1531 1531 1531 1531 1531 1532
1507 1512 1512 1509 1505 1507 1510 1509 1505 1505 1505 1505 1507 1509 1511 1513 1515 1517 1520 1521 1523 1524 1526 1527 1528 1529 1530 1530 1530 1531 1531 1531 1531 1531 1531 1531 1531 1530 1530 1530 1530 1530 1530 1530 1530 1530 1531 1531 1531
1507 1510 1509 1509 1507 1507 1510 1511 1506 1502 1502 1504 1505 1506 1508 1510 1512 1514 1517 1519 1521 1522 1524 1526 1527 1528 1529 1529 1530 1530 1530 1530 1530 1530 1530 1530 1530 1529 1529 1529 1529 1529 1529 1529 1529 1530 1530 1530 1531
1508 1502 1503 1507 1513 1518 1514 1524 1508 1502 1502 1501 1502 1503 1505 1507 1509 1512 1514 1516 1518 1520 1522 1524 1526 1527 1528 1528 1528 1528 1528 1528 1529 1529 1529 1529 1529 1528 1528 1528 1528 1528 1528 1528 1529 1529 1529 1530 1530
1501 1499 1503 1506 1512 1519 1517 1522 1513 1503 1502 1498 1497 1499 1501 1504 1506 1509 1511 1514 1516 1519 1521 1522 1524 1525 1526 1527 1527 1527 1527 1527 1528 1528 1528 1528 1528 1527 1527 1527 1527 1527 1527 1527 1528 1528 1528 1529 1529
1498 1503 1508 1514 1519 1526 1518 1522 1515 1505 1498 1493 1493 1494 1496 1500 1503 1506 1509 1512 1514 1516 1518 1520 1522 1523 1524 1525 1525 1526 1526 1526 1526 1526 1526 1527 1526 1526 1526 1526 1526 1526 1526 1527 1527 1527 1527 1527 1528
1500 1513 1527 1527 1532 1529 1516 1518 1512 1495 1491 1489 1489 1490 1492 1496 1500 1503 1506 1509 1511 1514 1516 1518 1520 1521 1522 1523 1524 1524 1524 1525 1525 1525 1525 1525 1525 1525 1525 1525 1525 1525 1525 1525 1526 1526 1526 1526 1527
1502 1509 1526 1533 1534 1528 1518 1518 1503 1490 1487 1486 1486 1487 1490 1494 1497 1500 1503 1505 1508 1511 1513 1515 1517 1519 1520 1521 1522 1523 1523 1524 1524 1524 1524 1524 1524 1524 1524 1524 1524 1524 1524 1524 1524 1524 1525 1525 1525
1503 1509 1509 1523 1525 1529 1522 1512 1498 1487 1486 1485 1486 1487 1489 1491 1494 1497 1500 1503 1506 1508 1511 1513 1515 1517 1518 1519 1520 1521 1522 1522 1523 1523 1523 1523 1523 1523 1523 1523 1523 1523 1523 1523 1523 1523 1523 1523 1523
1496 1503 1515 1522 1529 1532 1522 1515 1507 1492 1488 1487 1486 1486 1487 1490 1492 1495 1498 1501 1503 1506 1509 1511 1513 1514 1516 1517 1519 1519 1520 1521 1521 1521 1522 1522 1522 1522 1522 1522 1522 1522 1522 1522 1522 1521 1522 1522 1522
1500 1504 1510 1519 1521 1529 1529 1517 1493 1489 1486 1486 1485 1485 1486 1488 1490 1493 1496 1499 1502 1504 1507 1508 1510 1512 1514 1515 1517 1517 1518 1519 1519 1520 1520 1521 1521 1521 1521 1521 1521 1521 1521 1520 1520 1520 1520 1520 1520
1492 1497 1506 1515 1519 1523 1525 1515 1486 1485 1484 1483 1483 1484 1485 1487 1489 1491 1494 1497 1500 1502 1504 1506 1507 1509 1511 1513 1514 1515 1516 1517 1517 1518 1519 1519 1519 1519 1519 1519 1519 1519 1519 1519 1519 1519 1519 1518 1518